ATLAS 5 CENTAUR R/B, 40375

Orbit data source: Space-Track

ATLAS 5 CENTAUR R/B, 40375 is space debris in HEO originally from a launch on Wed, 21 Jan 2015 UTC launched from the Air Force Eastern Test Range (AFETR). Debris objects in space refer to the collection of defunct objects orbiting the Earth. Examples of debris include non-operational satellites, rocket bodies, and fragments generated from explosions, collisions, or faulty payload assembly.

Loading next visibility...
Identifier
40375, 2015-002B
Orbit
HEO
Country
Flag of USUS
Related business
Manufacturer
LMSS Denver
Mission
Spacecraft
Bus & Motor
CENTAUR SEC, RL10C-1
Mass
~2,020 kg wet, 2,020 kg dry
Launch date (UTC)
2015-01-21 (12 years ago)
Launch vehicle
Unknown
Launch site
Air Force Eastern Test Range (AFETR)
Object type
Payload
Rocket body
Debris
Shape & HBR
Cyl + 1 Nozzle, 6.1 m
Radar Cross Section
32.260 m², Large (>1 m²)

Expand to show TLE details & history
Last TLE update: 9 hours ago

TLE from 9 hours ago
0 ATLAS 5 CENTAUR R/B
1 40375U 15002B   26265.09821640 -.00000115  00000-0  00000-0 0  9996
2 40375  18.7583 273.9972 6086730 156.4091 250.8952  2.08935315 89080
Epoch: 2026-09-22T02:21Z
TLE epoch observation values (Epoch: 2026-09-22T02:21:25.896Z)
Latitude
-0°
Longitude
-122.31698°
Altitude
30,391.25 km
Speed
2.502 km/s
True Right ascension
18h 16m 02s
True Declination
0° 00' 00"
Sunlit
Object was in daylight at epoch
Visualization orbit readout
Latitude
Unknown
Longitude
Unknown
Altitude
Unknown
Speed
Unknown
Apparent Right ascension
Unknown
Apparent Declination
Unknown
Sunlit
N/A
Visualization observer readout
Local Sidereal Time
04:28:13
Azimuth
Unknown
Elevation
Unknown
Doppler factor
Unknown
Orbital elements
Apogee altitude
35,204.345 km
Perigee altitude
3,737.249 km
Semi-major axis
25,848.934 km
Eccentricity
0.60867
Inclination
18.7583°
RAAN
273.9972°
Arg. of periapsis
156.4091°
True anomaly
203.57407°
Mean anomaly
250.8952°
Eccentric anomaly
225.86557°
Mean motion
0.52225 °/min
Orbital period
689.32 mins
BSTAR
0
Loading maneuver chart data...
Computing Atmospheric mass density...
Loading historical data...
Loading historical data...
Loading historical data...
Loading historical data...
Loading historical data...
Loading historical data...
Loading historical data...
Other satellites on launch #2 in the year 2015 (2015-01-21 UTC)

Documentation

Showing up to 5 results
|